SCP
0 0 0 0 0 0 0 0 0 0 0 0 0 0 0 0 0 0 0 0 0 0 0 0 1 1 1 1 1 0 0 0 0 0 0 0 0 0 0 0 0 0 0 0 0 0 0 0 0
0 0 0 0 0 0 0 0 0 0 0 0 0 0 0 0 0 0 0 0 0 0 0 1 1 1 1 1 1 0 0 0 0 0 0 0 0 0 0 0 0 0 0 0 0 0 0 0 0
0 0 0 0 0 0 0 0 0 0 0 0 0 0 0 0 0 0 0 0 0 0 0 1 1 1 1 1 1 0 0 0 0 0 0 0 0 0 0 0 0 0 0 0 0 0 0 0 0
0 0 0 0 0 0 0 0 0 0 0 0 0 0 0 0 0 0 0 0 0 0 0 1 1 1 1 1 1 1 0 0 0 0 0 0 0 0 0 0 0 0 0 0 0 0 0 0 0
0 0 0 0 0 0 0 0 0 0 0 0 0 0 0 0 0 0 0 0 0 0 0 1 1 1 1 1 1 1 0 0 0 0 0 0 0 0 0 0 0 0 0 0 0 0 0 0 0
0 0 0 0 0 0 0 0 0 0 0 0 0 0 0 0 0 0 0 0 0 0 0 1 1 1 1 1 1 0 0 0 0 0 0 0 0 0 0 0 0 0 0 0 0 0 0 0 0
0 0 0 0 0 0 0 0 0 0 0 0 0 0 0 0 0 0 0 0 0 0 0 0 1 1 1 1 0 0 0 0 0 0 0 0 0 0 0 0 0 0 0 0 0 0 0 0 0
0 0 0 0 0 0 0 0 0 0 0 0 0 0 0 0 0 0 0 0 0 0 0 0 0 0 0 0 0 0 0 0 0 0 0 0 0 0 0 0 0 0 0 0 0 0 0 0 0
0 0 0 0 0 0 0 0 0 0 0 0 0 0 0 0 0 0 0 0 0 0 0 0 0 0 0 0 0 0 0 0 0 0 0 0 0 0 0 0 0 0 0 0 0 0 0 0 0
0 0 0 0 0 0 0 0 0 0 0 0 0 0 0 0 0 0 0 0 0 0 0 0 0 0 0 0 0 0 0 0 0 0 0 0 0 0 0 0 0 0 0 0 0 0 0 0 0
0 0 0 0 0 0 0 0 0 0 0 0 0 0 0 0 0 0 0 0 0 0 0 0 0 0 0 0 0 0 0 0 0 0 0 0 0 0 0 0 0 0 0 0 0 0 0 0 0
0 0 0 0 0 0 0 0 0 0 0 0 0 0 0 0 0 0 0 0 0 0 0 0 0 0 0 0 0 0 0 0 0 0 0 0 0 0 0 0 0 0 0 0 0 0 0 0 0
0 0 0 0 0 0 0 0 0 0 0 0 0 0 0 0 0 0 0 0 0 0 0 0 0 0 0 0 0 0 0 0 0 0 0 0 0 0 0 0 0 0 0 0 0 0 0 0 0
0 0 0 0 0 0 0 0 0 0 0 0 0 0 0 0 0 0 0 0 0 0 0 0 0 0 0 0 0 0 0 0 0 0 0 0 0 0 0 0 0 0 0 0 0 0 0 0 0
0 0 0 0 0 0 0 0 0 0 0 0 0 0 0 0 0 0 0 0 0 0 0 0 0 0 0 0 0 0 0 0 0 0 0 0 0 0 0 0 0 0 0 0 0 0 0 0 0
0 0 0 0 0 0 0 0 0 0 0 0 0 0 0 0 0 0 0 0 0 0 0 0 0 0 0 0 0 0 0 0 0 0 0 0 0 0 0 0 0 0 0 0 0 0 0 0 0
0 0 0 0 0 0 0 0 0 0 0 0 0 0 0 0 0 0 0 0 0 0 0 0 0 0 0 0 0 0 0 0 0 0 0 0 0 0 0 0 0 0 0 0 0 0 0 0 0
0 0 0 0 0 0 0 0 0 0 0 0 0 0 0 0 0 0 0 0 0 0 0 0 0 0 0 0 0 0 0 0 0 0 0 0 0 0 0 0 0 0 0 0 0 0 0 0 0
0 0 0 0 0 0 0 0 0 0 0 0 0 0 0 0 0 0 0 0 0 0 0 0 0 0 0 0 0 0 0 0 0 0 0 0 0 0 0 0 0 0 0 0 0 0 0 0 0
0 0 0 0 0 0 0 0 0 0 0 0 0 0 0 0 0 0 0 0 0 0 0 0 0 0 0 0 0 0 0 0 0 0 0 0 0 0 0 0 0 0 0 0 0 0 0 0 0
0 0 0 0 0 0 0 0 0 0 0 0 0 0 0 0 0 0 0 0 0 0 0 0 0 0 0 0 0 0 0 0 0 0 0 0 0 0 0 0 0 0 0 0 0 0 0 0 0
0 0 0 0 0 0 0 0 0 0 0 0 0 0 0 0 0 0 0 0 0 0 0 0 0 0 0 0 0 0 0 0 0 0 0 0 0 0 0 0 0 0 0 0 0 0 0 0 0
0 0 0 0 0 0 0 0 0 0 0 0 0 0 0 0 0 0 0 0 0 0 0 0 0 0 0 0 0 0 0 0 0 0 0 0 0 0 0 0 0 0 0 0 0 0 0 0 0
0 0 0 0 0 0 0 0 0 0 0 0 0 0 0 0 0 0 0 0 0 0 0 0 0 0 0 0 0 0 0 0 0 0 0 0 0 0 0 0 0 0 0 0 0 0 0 0 0
0 0 0 0 0 0 0 0 0 0 0 0 0 0 0 0 0 0 0 0 0 0 0 0 0 0 0 0 0 0 0 0 0 0 0 0 0 0 0 0 0 0 0 0 0 0 0 0 0
0 0 0 0 0 0 0 0 0 0 0 0 0 0 0 0 0 0 0 0 0 0 0 0 0 0 0 0 0 0 0 0 0 0 0 0 0 0 0 0 0 0 0 0 0 0 0 0 0
0 0 0 0 0 0 0 0 0 0 0 0 0 0 0 0 0 0 0 0 0 0 0 0 0 0 0 0 0 0 0 0 0 0 0 0 0 0 0 0 0 0 0 0 0 0 0 0 0
0 0 0 0 0 0 0 0 0 0 0 0 0 0 0 0 0 0 0 0 0 0 0 0 0 0 0 0 0 0 0 0 0 0 0 0 0 0 0 0 0 0 0 0 0 0 0 0 0
0 0 0 0 0 0 0 0 0 0 0 0 0 0 0 0 0 0 0 0 0 0 0 0 0 0 0 0 0 0 0 0 0 0 0 0 0 0 0 0 0 0 0 0 0 0 0 0 0
0 0 0 0 0 0 0 0 0 0 0 0 0 0 0 0 0 0 0 0 0 0 0 0 0 0 0 0 0 0 0 0 0 0 0 0 0 0 0 0 0 0 0 0 0 0 0 0 0
Wind_Speed
1 2 3 3 5 3 4 6 4 2 1 1 2 6 7 5 4 5 3 6 10 9 7 10 12 12 11 11 11 11 10 10 10 10 9 9 8 8 8 7 7 6 6 5 5 5 5 5 5
2 2 3 4 5 2 6 5 5 6 4 3 3 5 6 4 3 6 4 8 11 9 7 8 12 11 11 11 11 10 10 9 9 9 9 8 8 7 7 6 6 6 6 5 5 4 4 4 4
2 2 3 4 4 6 6 5 6 3 2 3 3 4 5 5 4 4 6 10 9 8 6 8 12 11 11 11 10 10 9 9 8 8 8 7 7 7 6 6 5 5 5 5 4 4 4 3 3
2 3 3 2 6 6 6 3 2 2 1 2 5 5 3 1 5 6 10 10 10 7 5 8 11 11 11 10 10 9 8 8 8 8 7 6 6 6 6 5 5 4 4 4 4 4 3 3 3
3 3 2 2 6 5 5 5 3 1 1 1 5 6 2 3 5 10 10 11 11 7 5 7 11 10 10 10 9 9 8 8 7 7 6 6 5 5 5 4 4 4 3 3 3 3 3 3 3
3 3 3 5 6 4 4 4 2 2 2 2 5 6 2 1 6 8 9 9 9 8 6 6 10 10 9 9 8 8 7 7 7 6 6 5 5 5 4 4 4 4 3 3 2 2 3 3 3
4 4 5 5 3 4 5 3 3 4 3 3 6 7 3 2 4 7 8 8 8 7 6 5 5 6 8 8 8 7 7 6 6 6 5 5 5 4 4 4 3 3 3 3 3 2 3 3 3
4 3 3 4 4 5 3 1 2 4 3 2 5 9 7 6 5 7 8 7 7 6 5 5 4 4 4 4 6 6 6 6 5 5 5 5 5 4 4 3 3 3 3 3 3 3 3 3 4
3 2 4 5 5 4 1 1 1 1 3 2 2 5 7 10 8 9 7 6 5 5 4 4 4 4 3 3 4 5 5 5 4 4 5 4 2 2 2 3 4 3 3 3 3 3 4 4 4
4 5 7 4 3 2 1 1 1 3 3 2 4 4 7 9 9 9 8 7 6 5 4 4 4 4 3 3 3 2 2 2 2 2 2 2 1 1 2 3 4 4 4 4 4 4 4 4 2
5 7 4 3 2 1 0 1 0 4 2 4 7 8 8 8 8 8 8 7 6 6 5 4 4 4 3 2 2 1 1 1 1 2 2 2 1 1 1 1 1 2 3 2 2 3 2 1 1
4 4 4 2 1 0 1 0 1 2 5 5 7 10 9 9 8 9 8 7 6 6 5 4 4 4 3 3 2 2 1 1 1 1 2 2 1 1 0 0 0 0 0 1 1 1 1 2 2
5 4 4 3 1 1 0 1 1 3 3 3 5 7 9 8 7 6 6 6 6 6 5 5 5 4 4 3 2 2 2 2 2 1 1 2 2 1 1 0 0 0 0 0 1 1 1 2 2
5 4 3 2 2 2 2 3 1 5 3 4 6 7 8 9 8 6 6 6 7 7 6 5 5 5 4 3 2 2 2 2 2 1 2 2 2 2 1 1 1 1 1 1 1 1 1 2 2
2 1 2 3 3 3 2 4 6 6 4 5 6 6 7 7 8 9 9 8 8 7 6 5 6 4 4 4 3 2 2 2 2 1 2 2 2 2 2 1 1 1 1 1 1 1 1 2 2
2 2 3 4 4 3 5 8 7 5 6 6 6 6 6 7 8 8 8 7 7 6 6 5 5 4 4 3 3 2 2 2 2 1 1 2 2 2 2 2 1 1 1 0 1 1 1 2 2
2 4 5 4 4 3 5 7 7 4 6 7 6 6 7 6 6 6 7 7 7 7 7 6 5 5 4 3 2 2 1 2 1 1 1 2 2 2 2 2 2 1 1 1 1 1 1 2 2
7 5 5 6 4 3 5 7 7 4 5 7 7 6 7 7 8 7 7 7 7 7 7 6 5 4 4 2 2 1 1 1 1 1 2 2 2 2 1 1 2 1 1 1 1 1 1 2 2
6 5 5 6 4 3 6 8 9 7 5 6 7 7 7 8 7 6 6 6 6 6 6 6 5 4 4 2 2 2 2 1 1 1 2 2 2 2 2 1 2 2 2 2 2 1 1 2 1
5 5 4 3 2 3 5 9 8 7 7 8 8 8 8 6 4 5 5 5 6 7 7 6 6 5 5 3 3 2 2 2 2 1 1 2 2 2 2 2 2 2 2 2 2 1 1 1 1
6 7 6 4 1 1 1 6 6 5 4 4 5 6 7 8 7 7 6 6 6 6 7 6 6 5 4 3 2 1 1 1 0 1 1 2 2 2 2 2 2 2 2 2 3 2 2 2 1
6 5 4 4 2 3 3 4 7 4 4 5 5 5 6 6 6 6 7 7 7 6 5 5 5 5 4 4 4 4 3 2 2 2 2 2 2 2 2 2 2 2 2 3 3 2 2 2 2
4 2 3 3 3 1 2 3 8 2 5 8 6 5 6 5 6 7 7 7 6 5 5 4 4 4 4 4 5 4 2 2 1 1 1 2 2 2 2 2 2 2 2 3 3 2 2 2 3
2 3 2 2 3 4 7 6 8 5 7 6 6 5 5 4 4 5 5 5 4 4 4 4 4 3 4 4 4 4 4 2 1 1 2 2 2 2 2 2 2 2 3 3 3 3 3 3 3
3 5 2 0 1 7 4 5 8 5 5 6 7 6 4 4 4 5 5 5 4 4 4 4 4 3 3 3 4 4 4 4 4 3 3 2 1 2 3 2 2 2 3 3 3 3 3 3 3
4 5 6 6 6 3 2 7 5 4 3 1 2 2 2 3 3 4 5 5 5 4 4 4 4 3 3 3 3 3 3 3 2 3 2 3 2 2 2 2 2 2 3 2 2 2 3 3 3
3 3 3 3 2 2 4 4 4 4 4 4 2 2 2 2 2 3 4 4 4 4 3 4 4 3 3 3 2 2 2 2 2 2 2 2 2 2 2 2 2 2 2 2 2 2 3 3 3
2 3 3 3 3 3 3 3 3 2 2 2 1 1 1 1 2 2 3 3 3 3 2 2 4 3 3 2 2 1 2 2 2 1 1 2 2 2 2 2 2 2 2 2 2 2 2 2 2
2 1 2 2 3 4 3 4 2 3 3 2 1 1 2 2 2 2 2 2 2 2 2 2 2 2 2 2 1 1 2 1 1 1 2 2 2 2 2 2 2 2 2 2 2 2 2 2 2
1 3 4 3 3 3 2 4 3 1 1 2 1 2 2 3 3 2 2 2 2 2 1 1 1 2 2 2 1 1 1 1 1 1 2 1 1 1 1 2 2 2 2 2 2 2 2 2 2
Wind_Direction
294 54 78 65 64 64 233 241 227 221 190 183 118 110 116 116 143 159 153 141 136 138 139 134 126 122 119 115 111 109 106 102 99 96 93 90 88 86 83 80 78 75 74 75 75 71 68 67 66
81 80 68 68 104 169 251 244 229 225 188 151 103 97 91 87 93 115 130 140 136 134 135 134 127 123 120 117 114 111 107 103 99 96 92 91 88 84 82 81 77 70 68 68 66 61 59 61 56
96 122 99 96 155 191 221 231 215 234 197 158 99 72 106 131 134 138 145 138 126 126 131 134 126 123 120 117 114 111 107 103 101 98 94 93 91 86 79 76 74 70 66 62 59 54 48 48 43
87 76 71 115 218 225 215 228 184 154 64 87 114 79 71 118 153 142 135 132 123 124 127 132 126 123 120 116 112 109 108 106 103 99 96 94 91 86 79 70 66 63 61 58 54 49 42 35 23
74 97 118 217 236 247 240 248 247 199 164 107 108 104 69 355 109 124 132 132 131 132 130 132 124 120 117 113 111 109 107 105 105 101 98 96 91 84 78 71 65 58 57 55 49 39 30 19 6
86 96 141 215 237 254 256 238 222 197 170 122 109 114 122 86 117 130 132 131 132 131 123 124 120 117 116 113 111 110 108 105 103 100 94 88 86 83 79 70 62 54 49 42 34 25 15 7 4
132 140 186 203 220 244 243 218 185 177 162 175 139 119 136 169 145 131 125 124 122 124 120 116 121 119 117 115 113 110 107 104 101 96 88 80 79 80 77 68 57 51 40 29 19 12 7 3 3
153 142 204 209 203 231 239 192 167 161 169 160 124 137 171 190 157 120 110 113 116 117 121 120 117 115 117 124 116 108 105 102 98 91 83 76 73 70 65 57 48 44 37 28 18 9 360 2 3
136 132 209 211 197 217 230 100 7 54 106 71 90 157 167 150 134 116 111 109 121 125 127 127 122 118 115 122 117 112 110 104 99 97 86 76 71 72 66 45 41 40 35 26 14 7 3 1 359
147 190 218 222 210 198 347 99 151 71 64 62 55 70 115 132 136 136 141 145 149 152 151 140 134 129 123 122 114 116 113 114 110 117 112 101 88 67 59 39 33 27 23 19 12 4 8 5 349
178 202 222 257 261 226 356 345 344 128 176 183 155 144 140 143 146 151 158 160 162 159 155 152 147 139 131 127 129 120 114 121 124 130 127 118 100 75 50 45 17 10 12 14 1 1 358 343 324
191 227 219 246 266 271 247 293 353 195 205 183 161 152 153 157 165 168 168 166 161 157 162 158 149 140 141 137 143 145 138 145 153 167 151 135 127 115 108 89 351 12 357 353 346 338 334 322 304
215 231 235 237 255 249 23 243 218 259 224 157 143 148 162 170 176 177 168 164 159 161 165 164 154 147 147 140 155 148 163 171 175 176 170 155 152 162 165 189 215 250 259 254 303 316 316 309 300
205 216 242 250 245 247 203 260 228 244 185 156 159 172 179 179 180 173 170 169 169 167 166 163 159 156 148 148 159 165 171 173 170 182 190 172 165 169 169 183 224 256 244 242 251 277 298 295 292
179 182 285 253 217 215 154 276 232 228 175 179 189 191 189 192 184 183 183 177 176 171 165 167 164 157 156 159 167 163 175 168 172 190 191 185 179 175 174 187 216 239 249 277 295 306 307 303 307
119 157 226 248 197 194 157 245 251 221 178 198 206 202 201 204 195 193 185 175 173 165 165 170 164 159 165 166 168 167 173 170 187 195 200 202 195 179 174 187 217 229 217 219 258 270 291 292 292
167 194 212 251 210 172 177 239 256 229 186 204 212 206 203 205 206 199 186 175 171 169 167 166 160 162 168 165 162 166 172 180 194 197 203 212 201 182 177 196 215 207 196 219 259 286 267 282 293
193 193 203 214 219 181 214 242 257 255 206 213 215 211 206 203 210 199 186 179 170 167 165 165 161 164 159 147 131 125 147 204 203 200 206 209 205 193 186 205 217 198 195 230 232 258 275 261 274
182 185 212 232 228 201 231 246 249 250 231 225 226 220 215 214 212 194 180 170 161 160 161 165 162 167 154 151 157 170 201 223 225 221 214 210 205 202 195 212 217 209 207 223 227 239 271 280 291
205 213 232 266 240 212 244 260 253 241 224 214 214 215 213 212 202 188 174 165 165 168 169 168 169 172 173 175 178 184 188 214 217 224 232 221 208 209 206 208 218 218 215 232 237 232 245 277 286
222 207 207 216 308 303 262 287 264 257 232 230 220 210 204 196 195 188 176 171 166 170 175 176 176 175 175 165 141 105 73 36 357 258 246 240 223 220 216 216 221 224 208 220 232 225 214 241 268
229 215 201 193 160 244 172 264 274 246 251 241 233 220 213 206 193 184 175 175 178 183 176 173 174 170 171 161 160 165 175 195 220 224 236 258 241 235 228 223 222 220 218 227 234 233 233 212 243
215 198 197 199 175 239 211 220 278 245 244 243 236 226 220 207 191 182 174 175 175 170 166 169 167 171 169 168 173 177 189 204 227 233 233 246 257 250 245 237 231 228 227 230 233 239 240 223 224
139 90 52 53 106 238 215 188 268 231 226 235 230 221 211 195 177 171 164 151 147 150 153 158 161 174 175 173 176 182 186 187 180 230 234 249 261 262 262 260 245 238 232 231 232 231 233 237 235
107 110 89 21 219 241 197 188 247 252 243 225 220 219 204 176 161 160 151 145 144 144 159 163 162 169 175 177 187 192 191 186 192 206 217 235 254 267 258 266 255 248 243 238 232 232 239 240 239
199 155 164 186 205 254 189 216 252 298 301 283 206 194 165 159 156 159 161 156 156 155 158 163 166 169 178 182 197 200 190 191 207 214 218 224 233 242 245 252 254 249 243 244 235 239 245 247 247
156 195 178 141 173 216 238 259 306 353 3 18 46 86 117 145 149 153 152 151 153 157 164 173 173 173 184 188 195 198 197 202 215 226 226 232 246 246 246 247 257 259 247 244 243 246 248 250 250
151 152 114 139 168 221 255 247 255 278 290 358 52 103 112 97 94 128 144 151 151 155 155 161 168 176 184 190 199 210 219 221 221 217 237 247 250 243 237 247 255 264 262 259 252 267 260 252 259
107 110 122 155 179 170 216 257 241 224 209 194 196 151 146 125 103 113 125 133 121 104 106 118 155 153 171 195 209 214 233 233 216 226 242 243 246 247 234 241 250 259 271 273 258 258 261 257 270
189 175 151 164 229 207 193 260 332 350 103 103 92 76 84 83 70 72 82 87 83 83 85 93 124 167 190 201 205 222 241 230 224 240 249 241 244 244 246 248 249 260 272 272 262 259 262 254 262